Text 2143, 190 rader
Skriven 2008-02-29 00:00:49 av Amsat List (1:323/120.0)
Ärende: [keps]  orb08059.2l.amsa
================================
[keps]  orb08059.2l.amsa
Return-Path: <keps-bounces@amsat.org>
X-Rcpt: craig.healy@chowda.com
X-UIDL: 1204261057.5436
SB KEPS @ AMSAT  $ORB08059.N
2Line Orbital Elements 08059.AMSAT
HR AMSAT ORBITAL ELEMENTS FOR AMATEUR SATELLITES IN NASA FORMAT
FROM WA5QGD FORT WORTH,TX February 28, 2008
Send Subscribe/unsubscribe to KEPS at 
http://www.amsat.org/mailman/listinfo/keps
BID: ORB08059.N
DECODE 2-LINE ELSETS WITH THE FOLLOWING KEY:
1 AAAAAU 00  0  0 BBBBB.BBBBBBBB  .CCCCCCCC  00000-0  00000-0 0  DDDZ
2 AAAAA EEE.EEEE FFF.FFFF GGGGGGG HHH.HHHH III.IIII JJ.JJJJJJJJKKKKKZ
KEY: A-CATALOGNUM B-EPOCHTIME C-DECAY D-ELSETNUM E-INCLINATION F-RAAN
G-ECCENTRICITY H-ARGPERIGEE I-MNANOM J-MNMOTION K-ORBITNUM Z-CHECKSUM
TO ALL RADIO AMATEURS BT
AO-07
1 07530U 74089B   08059.79916430 -.00000027  00000-0  10000-3 0  1147
2 07530 101.4812 094.9034 0012079 115.3654 244.8664 12.53573600523272
AO-10
1 14129U 83058B   08058.52278192 -.00000194  00000-0  10000-3 0 04767
2 14129 025.9279 228.2479 6025524 102.3320 327.4450 02.05872153185824
UO-11
1 14781U 84021B   08059.83585554 -.00000210  00000-0 -20681-4 0  6073
2 14781 098.1685 092.1650 0010103 068.0753 292.1527 14.79618964287681
RS-15
1 23439U 94085A   08058.94728506 -.00000039  00000-0  10000-3 0 01336
2 23439 064.8211 313.3198 0150206 143.6674 217.4559 11.27551476542539
FO-29
1 24278U 96046B   08059.22890360  .00000074  00000-0  10886-3 0  7120
2 24278 098.5847 349.9099 0351194 140.1025 222.6510 13.52935963569526
SO-33
1 25509U 98061B   08058.75060735  .00000222  00000-0  32076-4 0  1416
2 25509 031.4273 220.7889 0354757 141.7477 220.8907 14.28197887487812
AO-40
1 26609U 00072B   08058.13732626 -.00000398  00000-0  10000-3 0   157
2 26609 007.4400 095.7165 7922904 055.7824 355.6004 01.25583892 33649
VO-52
1 28650U 05017B   08059.10913514  .00000374  00000-0  54165-4 0  8673
2 28650 097.8011 128.6876 0028083 138.1881 222.1455 14.81426954152304
PO-63
1 29712U 07001D   08059.77394701  .00000469  00000-0  68702-4 0  2268
2 29712 097.8879 119.9631 0014701 021.0381 339.1417 14.80037451 61287
AO-16
1 20439U 90005D   08059.00518023 -.00000006  00000-0  13010-4 0  2622
2 20439 098.2208 044.7556 0011510 140.4674 219.7349 14.31785188945159
LO-19
1 20442U 90005G   08059.90925295  .00000019  00000-0  22013-4 0  1870
2 20442 098.1961 054.4604 0012616 136.8768 223.3393 14.32024334945432
AO-27
1 22825U 93061C   08059.84884658  .00000036  00000-0  30454-4 0  9091
2 22825 098.3718 024.0481 0007832 219.8155 140.2454 14.29231506752150
IO-26
1 22826U 93061D   08059.85187007 -.00000010  00000-0  12325-4 0  6128
2 22826 098.3637 025.0107 0008268 216.7944 143.2680 14.29479163752240
PO-28
1 22829U 93061G   08059.89197170 -.00000074  00000-0 -12300-4 0  8853
2 22829 098.3513 026.1727 0009526 187.6509 172.4528 14.30180909752500
GO-32
1 25397U 98043D   08059.85319612  .00000057  00000-0  43345-4 0  5370
2 25397 098.3796 100.3438 0001274 156.6143 203.5075 14.23139358500667
MO-46
1 26548U 00057D   08059.73953846 -.00000095  00000-0  64057-5 0   357
2 26548 064.5571 108.9326 0017310 339.0807 020.9577 14.83230150401581
NO-44
1 26931U 01043C   08058.95180837 -.00000246  00000-0 -63792-4 0  8164
2 26931 067.0515 208.6319 0004908 272.5050 087.5508 14.29512041334651
SO-50
1 27607U 02058C   08059.03341205  .00000062  00000-0  31706-4 0  5408
2 27607 064.5603 028.1645 0080893 301.3031 058.0172 14.71330402278761
CO-55
1 27844U 03031E   08059.48963623  .00000027  00000-0  32671-4 0  2462
2 27844 098.7187 069.2677 0010823 072.7116 287.5247 14.20562481241861
CO-57
1 27848U 03031J   08059.05039295  .00000030  00000-0  34495-4 0  1995
2 27848 098.7194 067.9543 0010641 077.6680 282.5705 14.20374320241775
AO-51
1 28375U 04025K   08059.10016649  .00000008  00000-0  14765-4 0   418
2 28375 098.0832 089.8021 0084415 126.1114 234.7924 14.40597958192558
CO-56
1 28941U 06005C   08059.22608208  .00023068  24571-5  19324-3 0  8685
2 28941 098.1037 155.4750 0187408 079.4499 282.7799 15.50978090112968
CP4
1 31122U 07012F   08059.68973612  .00000548  00000-0  13192-3 0  2734
2 31122 098.0538 129.2919 0084249 309.2309 050.1435 14.55091602 46157
CP3
1 31128U 07012M   08059.07218519 -.00000048  00000-0  00000 0 0  2681
2 31128 098.0507 127.1071 0101729 315.7740 043.5363 14.51917079 45953
LIBERT
1 31129U 07012N   08059.67320709  .00000337  00000-0  89029-4 0  7861
2 31129 098.0511 127.7151 0102140 314.1377 045.1408 14.52006724 46025
NOAA-10
1 16969U 86073A   08059.09872828 -.00000044  00000-0  10372-6 0   226
2 16969 098.7319 081.2414 0012805 139.3642 220.8490 14.27351327115731
NOAA-11
1 19531U 88089A   08059.34345984 -.00000178  00000-0 -69500-4 0   571
2 19531 098.7969 150.2060 0011941 025.1134 335.0587 14.14866095  2372
NOAA-12
1 21263U 91032A   08059.49631089 -.00000093  00000-0 -20398-4 0  5649
2 21263 098.7664 061.4630 0013418 084.6106 275.6604 14.25517976872765
MET-3/5
1 21655U 91056A   08059.41742151  .00000051  00000-0  10000-3 0  3979
2 21655 082.5576 181.9162 0012192 290.2123 069.7682 13.17014140795131
MET-2/21
1 22782U 93055A   08058.92970016  .00000006  00000-0 -73866-5 0   755
2 22782 082.5487 199.0219 0021329 237.2943 122.6166 13.83625887731887
OKEAN-4
1 23317U 94066A   08059.38459769  .00000208  00000-0  22694-4 0  5188
2 23317 082.5361 057.5183 0023684 126.0948 234.2443 14.82581564722013
NOAA-14
1 23455U 94089A   08059.42397089 -.00000255  00000-0 -11092-3 0   387
2 23455 098.9555 131.5623 0010391 095.6958 264.5397 14.13734353678842
SICH-1
1 23657U 95046A   08059.39932755  .00000121  00000-0  12306-4 0  3165
2 23657 082.5291 198.4581 0025429 118.9250 241.4517 14.81554543673961
NOAA-15
1 25338U 98030A   08059.44708362  .00000089  00000-0  56577-4 0  3688
2 25338 098.5507 054.1255 0010829 007.4847 352.6499 14.24688262509172
RESURS
1 25394U 98043A   08058.73509853 -.00000009  00000-0  14081-4 0 08928
2 25394 098.4032 107.6488 0001735 130.0471 230.0861 14.24153680500725
FENGYUN1
1 25730U 99025A   08059.24328564  .00000176  00000-0  12873-3 0  3507
2 25730 098.7175 038.7753 0021940 119.1702 241.1667 14.07699179453491
OKEAN-0
1 25860U 99039A   08059.85549990  .00000027  00000-0  11420-4 0  3010
2 25860 097.7446 055.2750 0000604 055.0405 305.0856 14.73504432463297
NOAA-16
1 26536U 00055A   08059.48115047 -.00000262  00000-0 -11690-3 0  8243
2 26536 099.1499 046.2943 0010614 169.2592 190.8800 14.12469339383281
NOAA-17
1 27453U 02032A   08059.43700283  .00000198  00000-0  10466-3 0  8231
2 27453 098.5464 127.1877 0012645 070.8594 289.3959 14.23953145295180
NOAA-18
1 28654U 05018A   08059.50716483 -.00000070  00000-0 -14445-4 0  3350
2 28654 098.8581 001.8446 0013421 264.7001 095.2624 14.11140276143003
HUBBLE
1 20580U 90037B   08059.85253987  .00000333  00000-0  12922-4 0   825
2 20580 028.4690 316.3167 0003530 300.4556 059.5683 15.00342024778545
UARS
1 21701U 91063B   08059.87476793  .00002724  00000-0  48188-4 0  3029
2 21701 056.9773 278.0302 0082958 332.6874 026.9834 15.50706473905539
PO-34
1 25520U 98064B   08058.75084996  .00000371  00000-0  84930-5 0  9406
2 25520 028.4590 198.1132 0005806 160.5575 199.5240 15.17138352516375
ISS
1 25544U 98067A   08060.01955058  .00026732  00000-0  17415-3 0   157
2 25544 051.6400 219.0756 0002632 166.0493 294.7404 15.75704138531303
OO-38
1 26063U 00004C   08059.05152603 -.00000015  00000-0  14911-4 0  1466
2 26063 100.2052 113.7203 0036955 159.3538 200.9138 14.35828418423767
UWE-1
1 28892U 05043C   08058.98971933  .00000078  00000-0  25961-4 0  9869
2 28892 098.1095 315.1926 0018224 036.2181 324.0264 14.59596751124525
CO-58
1 28895U 05043F   08058.96073438  .00000158  00000-0  42857-4 0  9584
2 28895 098.1117 315.4773 0018558 036.5329 323.7180 14.59639101124400
NCUBE2
1 28897U 05043H   08059.21222041  .00000120  00000-0  34766-4 0  4899
2 28897 098.1091 315.6599 0018098 036.8582 323.3863 14.59807394116725
FCAL
1 29667U 06055J   08059.78746470  .00051917  12646-4  87233-4 0  7880
2 29667 051.6302 176.8300 0007738 286.7615 073.2583 16.03141871 68930
FALCON
1 30776U 07006E   08058.57048311  .00000377  00000-0  30594-4 0 02700
2 30776 035.4329 104.3138 0000352 103.4123 256.6632 15.02890449053498
MAST
1 31126U 07012K   08059.22814163  .00000066  00000-0  25841-4 0  2665
2 31126 098.0491 127.9986 0094108 313.1861 046.1514 14.53402045 46046
CAPE1
1 31130U 07012P   08059.75735045  .00000049  00000-0  22602-4 0  2460
2 31130 098.0504 127.7677 0101901 313.6205 045.6570 14.51934252 45849
/EX
_______________________________________________
Via the Keps mailing list courtesy of AMSAT-NA
http://amsat.org/mailman/listinfo/keps
--- ViaMAIL!/WC v1.60d
 * Origin: Chowdanet (401-724-4410) telnet://chowdanet.com  (1:323/120)
  |